Погода Нижний Чир

Погода Нижний Чир : погода сейчас, прогноз погоды и архив. Всё, что Вы хотите узнать о погоде Нижний Чир!

Хотите узнать прогноз погоды Нижний Чир? Тогда Вам сюда: Погода Нижний Чир

Поиск расширенной информации на нашем сайте:

Другие новости

Новости СМИ2

Главная страница сайта

Новости сайта

03.07.2017

Напоминаем, что на нашем специализированном сайте Метеоцентр.Азия вы можете получить высокодетализированные автоматические прогнозы погоды по пунктам России, СНГ и мира в авиационном формате (включающие направление и скорость ветра, видимость, явления погоды, количество и форму облачности, нижнюю и верхнюю границу облачности).


Погода Нижний Чир - сегодня

Время (UTC), дата Ветер
(°,м/с) 
Видим.   Явления Облачность Т
(°С)
Тd
(°С)
f(%) Тe
(°С)
Pmin
(гПа)
dP
(гПа)
Po
(мм)
O2
(г/м3)
Тmin Tmax R s Состояние
почвы
00 18.08.17 040 (СВ) 20000 м    ясно 
+22.5 +10.2 46 +24  1019.6  0.7  758  281           
03 18.08.17 350 (С) 20000 м    ясно 
+20 +7.6 45 +20  1020.3  0.5  759  284  +19.2        сухая 
06 18.08.17 030 (СВ) 20000 м    ясно 
+25.1 +12.8 46 +30  1020.4  0.3  759  278           
09 18.08.17 030 (СВ) 20000 м    3/3 1000 м верхняя 
[Cu med, cong|Ci fib]
+29.9 +14.2 38 +37  1019.8  -0.5  759  273           
12 18.08.17 060 (СВ) 20000 м    6/6 1000 м 
[Cu med, cong]
+30.6 +12.4 33 +35  1018.8  -0.9  758  272           
15 18.08.17 070 (В) 20000 м    4/4 1000 м 
[Cu med, cong]
+28.4 +14.6 43 +36  1018.6  -1.2  758  274          замёрзшая 
18 18.08.17 050 (СВ) 7{15}  20000 м    6/6 600 м 
[Sc diur, vesp]
+26.2 +14.4 48 +34  1020.2  1.5  759  276           
21 18.08.17 060 (СВ) 7{12}  20000 м    ясно 
+25.1 +13.3 48 +31  1020.7  0.4  759  278           
00 19.08.17 010 (С) 20000 м    ясно 
+22.1 +11.2 50 +25  1020.8  0.1  759  281           
03 19.08.17 030 (СВ) 20000 м    9/9 600 м 
[Sc]
+22.5 +11.7 50 +26  1021.1  0.3  759  281  +22        сухая 
06 19.08.17 050 (СВ) 6{10}  20000 м    8/3 600 м средняя 
[Cu med, cong|Ac trans]
+24.5 +11.3 44 +27  1021.7  0.7  760  279           
09 19.08.17 030 (СВ) 20000 м    4/0 средняя, верхняя 
[Ac lent|Ci fib]
+30.3 +13.2 35 +36  1020.8  -0.8  759  273           
12 19.08.17 040 (СВ) 20000 м    4/4 1000 м 
[Cu med, cong]
+31 +13.9 35 +38  1019.5  -1.2  758  272           
15 19.08.17 030 (СВ) 20000 м    4/4 600 м 
[Cu med, cong]
+28.2 +17.1 51 +40  1019.2  -0.4  758  273    +31       
18 19.08.17 070 (В) 5{12}  20000 м    8/3 600 м верхняя 
[Sc|Ci fib]
+26.5 +13.9 46 +33  1020.2  0.9  759  276           
21 19.08.17 050 (СВ) 20000 м    ясно 
+23.7 +10.9 44 +26  1020.8  0.5  759  280           
00 20.08.17 050 (СВ) 20000 м    ясно 
+23.7 +12.2 48 +28  1020.6  -0.2  759  279           
03 20.08.17 060 (СВ) 20000 м    3/3 600 м 
[Cu Sc]
+21.4 +12.8 58 +26  1021.1  0.5  759  281  +20.7        сухая 
06 20.08.17 050 (СВ) 20000 м    8/6 600 м средняя 
[Cu med, cong|Ac trans]
+23.5 +13.8 54 +30  1021.2  0.1  760  279           
09 20.08.17 040 (СВ) 20000 м    8/3 600 м средняя, верхняя 
[Cu med, cong|Ac trans|Ci fib]
+30.7 +10.8 29 +33  1019.9  -1.1  759  273           
12 20.08.17 130 (ЮВ) 8-11{11}  20000 м    9/8 600 м средняя, верхняя 
[Cu Sc|Ac trans|Ci fib]
+31.6 +7.7 23 +32  1018.8  -1.1  758  272           
15 20.08.17 110 (В) 5-10  20000 м    9/5 600 м средняя, верхняя 
[Sc diur, vesp|Ac trans|Ci fib]
+29 +10.3 31 +30  1018.6  -0.3  758  274    +33.4       
18 20.08.17 090 (В) 6-10{11}  20000 м    10/10 600 м 
[Sc]
+26.9 +10.5 36 +28  1020.3  1.7  759  277           
21 20.08.17 100 (В) 2{11}  20000 м    10/10 600 м 
[Sc]
+24.9 +13.3 48 +31  1019.8  -0.6  758  278           
00 21.08.17 140 (ЮВ) 20000 м    8/0 средняя 
[Ac trans]
+24.7 +9.7 39 +25  1020  0.2  759  279           
Время (UTC), дата Ветер
(°,м/с) 
Видим.   Явления Облачность Т
(°С)
Тd
(°С)
f(%) Тe
(°С)
Pmin
(гПа)
dP
(гПа)
Po
(мм)
O2
(г/м3)
Тmin Tmax R s Состояние
почвы

Для получения пояснительной информации подведите курсор к названию столбца.

ПОГОДА Нижний Чир - архив

Всё, что Вы хотите узнать о погоде Нижний Чир - удобно и подробно!

Выберите нужную дату (начиная с 1 января 2015* года) и нажмите кнопку "Найти".
Будут отображены архивные сводки погоды по пункту Нижний Чир, начиная с указанной даты.


Отображать данные в формате CSV (для использования в таблицах Excel)


Внимание! Наш архив погоды предназначен исключительно для личного некоммерческого использования в познавательных целях. Если Вам необходимы официальные справки о состоянии погоды (для производственных, юридических, коммерческих и т.п. целей), обращайтесь в органы Росгидромета.

*Примечание: данная дата относится к архиву по метеостанциям СССР (Россия, СНГ, Балтия).
Архив по метеостанциям Зарубежной Европы и Азии (кроме Китая) хранится 10 дней, по другим регионам земного шара (Китай, Африка, Америка, Австралия, Океания) - 1 день.

Нижний Чир - район местоположения метеостанции


Название, широта, долгота, высота метеостанции:
Нижний Чир 48.3°ш. 43.1°д. 68 м над ур. моря [Российская Федерация]

Дополнительная информация

В oтличие oт бoльшинства пoгoдных сайтoв мы публикуем пoдрoбную метеoинфoрмацию в детальнoм прoфессиoнальнoм фoрмате.

Характеристики температуры и влажнoсти вoздуха измеряются на высoте 2 м в тени вдали oт зданий и деревьев.
Скoрoсть ветра измеряется на высoте 10 м (на урoвне рoста челoвека скoрoсть ветра ниже в 1.5-2 раза). Если метеoстанция нахoдится в гoрoде или в лесу, тo скoрoсть ветра занижена на 2-4 м/с пo сравнению с oткрытым местoм. Скoрoсть ветра над акватoриями крупных рек и oзёр, а также на вершинах хoлмoв на 2-5 м/с выше, чем в oбычных услoвиях.
Атмoсфернoе давление в разных тoчках местнoсти мoжет значительнo oтличаться oт давления на метеoстанции, в зависимoсти oт услoвий рельефа (при пoдъёме на 10 м давление пoнижается примернo на 1 мм рт.ст.).